Regional Weather Roundup
Issued by NWS

Home | Current Version | Previous Version | Graphics & Text | Print | Product List | Glossary On
Versions: 1 2 3 4 5 6 7 8 9 10 11 12 13 14 15 16 17 18 19 20 21 22 23 24 25 26 27 28
000
ASUS45 KSLC 250010
RWRUT

UTAH REGIONAL WEATHER ROUNDUP
NATIONAL WEATHER SERVICE SALT LAKE CITY UT
600 PM MDT TUE MAY 24 2016

UTZ001>011-023>025-250100-

NORTHERN UTAH

CITY           SKY/WX    TMP DP  RH WIND       PRES   REMARKS
BRIGHAM CITY     N/A     62  33  33 S13G21    29.86S
HILL AFB       MOSUNNY   57  36  45 VRB2      29.90R
LOGAN          CLOUDY    61  37  41 S14       29.86R
OGDEN          CLOUDY    61  35  37 CALM      29.88S
PROVO AIRPORT  PTSUNNY   61  36  39 VRB6      29.89S
SALT LAKE CITY CLOUDY    61  40  45 N8        29.90R
VERNAL         CLOUDY    63  29  27 W15G23    29.86R
WENDOVER       CLOUDY    61  32  33 NW14      29.88R
HEBER CITY     CLOUDY    50  36  57 CALM      29.94R
WEST JORDAN    PTSUNNY   57  43  58 N9        29.91R

$$

UTZ012>022-026-027-250100-

SOUTHERN/CENTRAL UTAH

CITY           SKY/WX    TMP DP  RH WIND       PRES   REMARKS
BLANDING       SUNNY     69  18  14 SW15G23   29.98S
BRYCE CANYON   MOSUNNY   57  19  22 SW20G29   30.00R
CEDAR CITY     MOSUNNY   65  18  16 SW24G33   29.90S
DELTA          PTSUNNY   64  23  20 W15       29.86S
HANKSVILLE     MOSUNNY   75  23  14 W22G31    29.84S
MILFORD        PTSUNNY   65  26  23 S33G44    29.89R
MOAB/CYNLANDS  MOSUNNY   76  15  10 SW24G36   29.79S
PRICE          PTSUNNY   59  26  28 W14G24    29.91S
ST GEORGE      CLOUDY    75  23  14 SW24G32   29.85R
KANAB          MOSUNNY   66  21  18 SW16G22   29.94

$$

REGIONAL REPORTS     COLORADO/ARIZONA

CITY           SKY/WX    TMP DP  RH WIND       PRES   REMARKS
CRAIG, CO      CLOUDY    70  25  18 SW18G29   29.84S
GRAND JUNCTION SUNNY     75  15  10 S23       29.80F
RIFLE          SUNNY     74  14  10 SW24G30   29.82F
MONTROSE       SUNNY     74  12   9 SW23G30   29.88S
CORTEZ         SUNNY     73  12   9 SW18G25   29.94F
PAGE, AZ       MOSUNNY   76  16  10 SW9G24    29.82F
GRAND CANYON   SUNNY     65  12  12 SW23G35   30.01R
KINGMAN          N/A    N/A N/A N/A MISG      29.92
FLAGSTAFF      SUNNY     60  24  25 SW25G37   30.06S

$$

REGIONAL REPORTS    NEVADA/IDAHO/WYOMING

CITY           SKY/WX    TMP DP  RH WIND       PRES   REMARKS
LAS VEGAS, NV  MOSUNNY   79  28  15 SW17G33   29.78S
ELY            PTSUNNY   53  33  46 NE9       29.94S
ELKO           CLOUDY    53  42  66 CALM      29.95S
POCATELLO, ID  CLOUDY    59  39  47 S9G16     29.85R THUNDER
BURLEY         MOSUNNY   63  38  39 W10       29.83S
EVANSTON, WY   CLOUDY    54  31  41 W23G30    29.92S
ROCK SPRINGS   CLOUDY    56  32  40 W13       29.91F
KEMMERER         N/A     45  34  65 NW15G21   29.95S

$$




USA.gov is the U.S. government's official web portal to all federal, state and local government web resources and services.